Date,TemperatureHighF,TemperatureAvgF,TemperatureLowF,DewpointHighF,DewpointAvgF,DewpointLowF,HumidityHigh,HumidityAvg,HumidityLow,PressureMaxIn,PressureMinIn,WindSpeedMaxMPH,WindSpeedAvgMPH,GustSpeedMaxMPH,PrecipitationSumIn
2013-9-1,84.6,73.9,65.8,67.9,64.2,58.4,84,73,49,29.91,29.73,14,1,24,0.00
2013-9-2,67.0,60.3,52.3,58.2,52.6,46.7,83,76,63,30.05,29.91,11,0,12,0.00
2013-9-3,77.2,60.5,47.1,60.3,51.1,42.3,85,73,51,30.10,30.01,13,0,16,0.00
2013-9-4,86.8,68.6,53.4,72.1,59.9,48.2,85,75,55,30.12,30.03,8,0,8,0.00
2013-9-5,84.0,69.9,62.1,68.2,61.7,57.1,85,76,57,30.25,30.12,13,1,17,0.00
2013-9-6,88.7,73.3,61.3,69.9,61.8,51.6,78,68,50,30.17,29.92,21,2,24,0.00
2013-9-7,94.8,78.7,67.7,77.7,68.3,61.0,82,71,53,29.95,29.86,8,0,8,0.00
2013-9-8,74.8,70.7,65.1,67.7,62.5,56.4,80,75,68,30.07,29.92,15,1,18,0.00
2013-9-9,91.6,77.4,66.8,78.2,67.9,61.2,84,73,55,29.92,29.71,15,2,18,0.00
2013-9-10,91.6,78.0,67.7,73.1,66.9,61.7,83,69,50,29.98,29.78,9,1,14,0.00
2013-9-11,83.5,72.3,62.3,68.0,62.9,54.7,84,73,55,30.05,29.97,12,0,17,0.00
2013-9-12,77.8,64.0,54.0,55.8,52.3,46.8,84,67,44,30.18,29.99,14,1,16,0.00
2013-9-13,73.3,56.8,45.3,48.8,44.8,39.5,82,66,39,30.26,30.12,16,1,17,0.00
2013-9-14,74.6,58.1,43.8,53.4,45.7,38.6,83,66,40,30.15,29.93,13,1,17,0.13
2013-9-15,66.5,58.3,53.4,58.8,52.7,47.9,85,82,69,30.26,29.89,6,0,6,0.59
2013-9-16,71.7,56.6,47.8,48.5,44.9,41.3,83,67,40,30.40,30.26,11,0,11,0.00
2013-9-17,63.8,55.1,46.2,55.9,48.5,40.7,83,79,67,30.31,30.01,15,1,15,0.04
2013-9-18,80.2,68.5,60.2,68.2,61.9,54.7,84,79,65,30.01,29.79,16,2,18,0.00
2013-9-19,82.7,73.8,68.7,72.4,67.1,63.7,84,80,68,29.80,29.67,18,1,25,1.22
2013-9-20,68.7,61.8,56.1,63.7,55.5,49.7,85,80,67,29.89,29.75,2,0,2,0.02
2013-9-21,66.0,54.5,47.4,50.8,46.5,41.6,85,75,53,29.97,29.89,3,0,3,0.00
2013-9-22,72.4,55.5,42.4,54.2,46.4,37.6,85,73,50,30.05,29.94,4,0,4,0.00
2013-9-23,74.3,59.4,48.8,55.1,49.0,43.5,82,69,48,30.06,29.96,17,1,23,0.00
2013-9-24,79.0,60.9,48.7,57.4,50.1,43.5,84,69,42,30.01,29.92,12,0,15,0.00
2013-9-25,76.9,59.7,47.9,57.0,50.1,43.0,84,72,48,30.01,29.92,11,0,16,0.00
2013-9-26,80.0,64.6,50.4,62.0,53.9,45.3,84,69,52,30.02,29.96,19,2,28,0.00
2013-9-27,83.5,69.1,58.7,65.1,55.7,49.5,75,63,49,30.05,29.93,15,1,20,0.00
2013-9-28,73.6,60.9,50.9,62.6,53.6,46.2,84,77,63,29.98,29.76,33,1,37,0.41
2013-9-29,73.6,57.0,45.7,54.1,47.4,41.1,85,72,44,30.04,29.92,13,0,16,0.00
2013-9-30,75.3,60.9,48.8,53.1,48.5,43.6,83,65,43,29.93,29.73,24,1,27,0.00